| time (UTC) | temp F | wind direction | speed knots | gust knots | rain 1hr in | rain 24hr in | rain mn in | humidity % | barometer mb |
| 20260504222122 | 75 | 47 | 1.7 | 6.1 | 0.00 | 0.00 | 0.00 | 39 | 1008.2 |
| 20260504221622 | 75 | 48 | 1.7 | 7.8 | 0.00 | 0.00 | 0.00 | 36 | 1008.2 |
| 20260504221122 | 74 | 77 | 1.7 | 4.3 | 0.00 | 0.00 | 0.00 | 39 | 1008.3 |
| 20260504220622 | 74 | 50 | 2.6 | 7.0 | 0.00 | 0.00 | 0.00 | 36 | 1008.4 |
| 20260504220122 | 74 | 60 | 1.7 | 4.3 | 0.00 | 0.00 | 0.00 | 37 | 1008.3 |
| 20260504215622 | 74 | 42 | 1.7 | 5.2 | 0.00 | 0.00 | 0.00 | 36 | 1008.4 |
| 20260504215122 | 74 | 41 | 3.5 | 7.0 | 0.00 | 0.00 | 0.00 | 37 | 1008.5 |
| 20260504214622 | 74 | 50 | 3.5 | 7.0 | 0.00 | 0.00 | 0.00 | 40 | 1008.6 |
| 20260504214122 | 74 | 50 | 2.6 | 7.0 | 0.00 | 0.00 | 0.00 | 39 | 1008.6 |
| 20260504213622 | 74 | 43 | 2.6 | 7.0 | 0.00 | 0.00 | 0.00 | 41 | 1008.6 |
| 20260504213122 | 74 | 5 | 1.7 | 3.5 | 0.00 | 0.00 | 0.00 | 36 | 1008.6 |
| 20260504212622 | 74 | 315 | 2.6 | 8.7 | 0.00 | 0.00 | 0.00 | 37 | 1008.6 |
| 20260504212122 | 74 | 30 | 1.7 | 4.3 | 0.00 | 0.00 | 0.00 | 43 | 1008.7 |
| 20260504211622 | 74 | 329 | 0.9 | 2.6 | 0.00 | 0.00 | 0.00 | 36 | 1008.7 |
| 20260504211122 | 74 | 347 | 0.9 | 4.3 | 0.00 | 0.00 | 0.00 | 38 | 1008.6 |
| 20260504210622 | 74 | 279 | 1.7 | 4.3 | 0.00 | 0.00 | 0.00 | 40 | 1008.7 |
| 20260504210122 | 73 | 29 | 1.7 | 8.7 | 0.00 | 0.00 | 0.00 | 42 | 1008.7 |
| 20260504205622 | 73 | 47 | 3.5 | 9.6 | 0.00 | 0.00 | 0.00 | 38 | 1008.8 |
| 20260504205122 | 73 | 49 | 2.6 | 7.0 | 0.00 | 0.00 | 0.00 | 42 | 1008.9 |
| 20260504204622 | 73 | 52 | 0.9 | 5.2 | 0.00 | 0.00 | 0.00 | 38 | 1008.8 |
| 20260504204122 | 72 | 54 | 2.6 | 7.0 | 0.00 | 0.00 | 0.00 | 39 | 1008.9 |
| 20260504203622 | 72 | 24 | 1.7 | 3.5 | 0.00 | 0.00 | 0.00 | 45 | 1008.8 |
| 20260504203122 | 72 | 309 | 2.6 | 7.0 | 0.00 | 0.00 | 0.00 | 34 | 1008.8 |
| 20260504202622 | 72 | 46 | 2.6 | 7.8 | 0.00 | 0.00 | 0.00 | 40 | 1008.8 |
| 20260504202122 | 72 | 326 | 1.7 | 7.0 | 0.00 | 0.00 | 0.00 | 38 | 1008.9 |
| 20260504201622 | 72 | 309 | 1.7 | 6.1 | 0.00 | 0.00 | 0.00 | 39 | 1009.0 |
| 20260504201122 | 71 | 16 | 1.7 | 4.3 | 0.00 | 0.00 | 0.00 | 38 | 1009.0 |
| 20260504200622 | 71 | 30 | 1.7 | 6.1 | 0.00 | 0.00 | 0.00 | 39 | 1009.0 |
| 20260504200122 | 71 | 347 | 1.7 | 6.1 | 0.00 | 0.00 | 0.00 | 41 | 1009.0 |
| 20260504195622 | 71 | 345 | 1.7 | 7.0 | 0.00 | 0.00 | 0.00 | 44 | 1009.0 |
| 20260504195122 | 71 | 46 | 1.7 | 8.7 | 0.00 | 0.00 | 0.00 | 39 | 1008.9 |
| 20260504194622 | 71 | 308 | 1.7 | 7.0 | 0.00 | 0.00 | 0.00 | 39 | 1009.0 |
| 20260504194122 | 71 | 33 | 2.6 | 6.1 | 0.00 | 0.00 | 0.00 | 37 | 1009.1 |
| 20260504193622 | 71 | 42 | 3.5 | 13.0 | 0.00 | 0.00 | 0.00 | 41 | 1009.0 |
| 20260504193122 | 71 | 67 | 1.7 | 7.0 | 0.00 | 0.00 | 0.00 | 38 | 1009.1 |
| 20260504192622 | 71 | 9 | 1.7 | 7.0 | 0.00 | 0.00 | 0.00 | 42 | 1009.0 |
| 20260504192122 | 71 | 26 | 2.6 | 7.0 | 0.00 | 0.00 | 0.00 | 40 | 1009.1 |
| 20260504191622 | 71 | 346 | 2.6 | 7.0 | 0.00 | 0.00 | 0.00 | 40 | 1009.2 |
| 20260504191122 | 71 | 327 | 1.7 | 7.0 | 0.00 | 0.00 | 0.00 | 41 | 1009.2 |
| 20260504190622 | 70 | 339 | 1.7 | 7.0 | 0.00 | 0.00 | 0.00 | 42 | 1009.3 |
| 20260504190122 | 70 | 14 | 1.7 | 6.1 | 0.00 | 0.00 | 0.00 | 41 | 1009.4 |
| 20260504185622 | 70 | 49 | 1.7 | 6.1 | 0.00 | 0.00 | 0.00 | 40 | 1009.5 |
| 20260504185122 | 70 | 35 | 1.7 | 3.5 | 0.00 | 0.00 | 0.00 | 44 | 1009.6 |
| 20260504184622 | 70 | 34 | 1.7 | 6.1 | 0.00 | 0.00 | 0.00 | 45 | 1009.6 |
| 20260504184122 | 70 | 9 | 1.7 | 6.1 | 0.00 | 0.00 | 0.00 | 40 | 1009.5 |
| 20260504183622 | 69 | 44 | 1.7 | 7.0 | 0.00 | 0.00 | 0.00 | 44 | 1009.6 |
| 20260504183122 | 69 | 27 | 1.7 | 7.0 | 0.00 | 0.00 | 0.00 | 40 | 1009.6 |
| 20260504182622 | 69 | 48 | 2.6 | 7.0 | 0.00 | 0.00 | 0.00 | 42 | 1009.7 |
| 20260504182122 | 69 | 26 | 1.7 | 7.8 | 0.00 | 0.00 | 0.00 | 43 | 1009.7 |
| 20260504181622 | 68 | 24 | 2.6 | 7.0 | 0.00 | 0.00 | 0.00 | 42 | 1009.7 |
| 20260504181122 | 68 | 20 | 1.7 | 7.0 | 0.00 | 0.00 | 0.00 | 43 | 1009.8 |
| 20260504180622 | 68 | 23 | 1.7 | 7.0 | 0.00 | 0.00 | 0.00 | 45 | 1009.8 |
| 20260504180122 | 68 | 35 | 2.6 | 7.8 | 0.00 | 0.00 | 0.00 | 46 | 1009.8 |
| 20260504175622 | 67 | 28 | 1.7 | 5.2 | 0.00 | 0.00 | 0.00 | 44 | 1009.9 |
| 20260504175122 | 67 | 37 | 2.6 | 6.1 | 0.00 | 0.00 | 0.00 | 46 | 1010.0 |
| 20260504174622 | 67 | 310 | 2.6 | 8.7 | 0.00 | 0.00 | 0.00 | 43 | 1010.0 |
| 20260504174122 | 67 | 24 | 0.9 | 6.1 | 0.00 | 0.00 | 0.00 | 43 | 1010.1 |
| 20260504173622 | 67 | 43 | 2.6 | 9.6 | 0.00 | 0.00 | 0.00 | 45 | 1010.0 |
| 20260504173122 | 66 | 27 | 1.7 | 7.8 | 0.00 | 0.00 | 0.00 | 49 | 1010.0 |
| 20260504172622 | 66 | 19 | 1.7 | 7.0 | 0.00 | 0.00 | 0.00 | 49 | 1010.0 |
| 20260504172122 | 66 | 10 | 1.7 | 6.1 | 0.00 | 0.00 | 0.00 | 52 | 1010.0 |
| 20260504171622 | 65 | 357 | 0.9 | 7.0 | 0.00 | 0.00 | 0.00 | 50 | 1010.1 |
| 20260504171122 | 65 | 359 | 1.7 | 7.0 | 0.00 | 0.00 | 0.00 | 54 | 1010.1 |
| 20260504170622 | 64 | 24 | 1.7 | 6.1 | 0.00 | 0.00 | 0.00 | 50 | 1010.1 |
| 20260504170122 | 64 | 44 | 1.7 | 5.2 | 0.00 | 0.00 | 0.00 | 55 | 1010.3 |
| 20260504160122 | 57 | 52 | 2.6 | 7.0 | 0.00 | 0.00 | 0.00 | 59 | 1010.5 |
| 20260504151122 | 54 | 54 | 1.7 | 4.3 | 0.00 | 0.00 | 0.00 | 67 | 1010.8 |
| 20260504150622 | 53 | 56 | 2.6 | 3.5 | 0.00 | 0.00 | 0.00 | 66 | 1010.8 |
| 20260504150122 | 53 | 60 | 1.7 | 3.5 | 0.00 | 0.00 | 0.00 | 67 | 1010.8 |
| 20260504141122 | 49 | 58 | 1.7 | 2.6 | 0.00 | 0.00 | 0.00 | 75 | 1010.5 |
| 20260504140622 | 48 | 58 | 1.7 | 3.5 | 0.00 | 0.00 | 0.00 | 76 | 1010.5 |
| 20260504140122 | 48 | 58 | 0.9 | 2.6 | 0.00 | 0.00 | 0.00 | 76 | 1010.5 |
| 20260504130622 | 45 | 58 | 0.0 | 0.0 | 0.00 | 0.00 | 0.00 | 78 | 1009.6 |
| 20260504130122 | 45 | 58 | 0.0 | 0.9 | 0.00 | 0.00 | 0.00 | 78 | 1009.6 |
| 20260504120122 | 46 | 58 | 0.9 | 2.6 | 0.00 | 0.00 | 0.00 | 77 | 1009.1 |
| 20260504110622 | 46 | 58 | 0.9 | 3.5 | 0.00 | 0.00 | 0.00 | 76 | 1009.1 |
| 20260504110122 | 45 | 58 | 1.7 | 3.5 | 0.00 | 0.00 | 0.00 | 77 | 1009.1 |
| 20260504100122 | 47 | 58 | 0.0 | 0.0 | 0.00 | 0.00 | 0.00 | 78 | 1008.6 |
| 20260504090122 | 48 | 58 | 0.0 | 0.0 | 0.00 | 0.00 | 0.00 | 76 | 1008.3 |
| 20260504081623 | 49 | 58 | 0.0 | 0.0 | 0.00 | 0.00 | 0.00 | 74 | 1008.1 |
| 20260504081122 | 49 | 58 | 0.0 | 0.0 | 0.00 | 0.00 | 0.00 | 72 | 1008.1 |
| 20260504080622 | 50 | 58 | 0.0 | 0.0 | 0.00 | 0.00 | 0.00 | 73 | 1008.0 |
| 20260504080122 | 50 | 58 | 0.0 | 0.0 | 0.00 | 0.00 | 0.00 | 73 | 1007.9 |
| 20260504060122 | 54 | 58 | 0.0 | 0.0 | 0.00 | 0.00 | 0.00 | 65 | 1007.2 |
| 20260504050622 | 57 | 58 | 0.0 | 0.0 | 0.00 | 0.00 | 0.00 | 62 | 1007.4 |
| 20260504050122 | 58 | 58 | 0.0 | 0.0 | 0.00 | 0.00 | 0.00 | 63 | 1007.4 |
| 20260504045622 | 58 | 58 | 0.0 | 0.0 | 0.00 | 0.00 | 0.00 | 62 | 1007.3 |
| 20260504045123 | 58 | 58 | 0.0 | 0.0 | 0.00 | 0.00 | 0.00 | 62 | 1007.2 |
| 20260504044622 | 59 | 58 | 0.0 | 1.7 | 0.00 | 0.00 | 0.00 | 61 | 1007.1 |
| 20260504044122 | 59 | 58 | 0.9 | 1.7 | 0.00 | 0.00 | 0.00 | 60 | 1007.0 |
| 20260504043622 | 59 | 58 | 0.9 | 2.6 | 0.00 | 0.00 | 0.00 | 61 | 1007.0 |
| 20260504043122 | 60 | 58 | 0.0 | 1.7 | 0.00 | 0.00 | 0.00 | 59 | 1007.0 |
| 20260504042622 | 60 | 57 | 0.9 | 2.6 | 0.00 | 0.00 | 0.00 | 57 | 1007.1 |
| 20260504042122 | 61 | 55 | 0.9 | 3.5 | 0.00 | 0.00 | 0.00 | 57 | 1007.0 |
| 20260504041622 | 61 | 54 | 0.0 | 1.7 | 0.00 | 0.00 | 0.00 | 55 | 1007.0 |
| 20260504041122 | 61 | 54 | 0.0 | 0.0 | 0.00 | 0.00 | 0.00 | 55 | 1007.0 |
| 20260504040622 | 62 | 54 | 0.0 | 0.0 | 0.00 | 0.00 | 0.00 | 54 | 1007.0 |
| 20260504040122 | 63 | 54 | 0.0 | 0.0 | 0.00 | 0.00 | 0.00 | 53 | 1006.9 |
| 20260504035622 | 63 | 54 | 0.0 | 0.0 | 0.00 | 0.00 | 0.00 | 49 | 1007.0 |
| 20260504035122 | 63 | 54 | 0.0 | 0.0 | 0.00 | 0.00 | 0.00 | 49 | 1007.0 |
| 20260504034623 | 63 | 54 | 0.0 | 0.0 | 0.00 | 0.00 | 0.00 | 48 | 1006.9 |
| 20260504034122 | 63 | 54 | 0.0 | 0.0 | 0.00 | 0.00 | 0.00 | 47 | 1006.9 |
| 20260504033622 | 64 | 54 | 0.0 | 0.0 | 0.00 | 0.00 | 0.00 | 50 | 1006.9 |
| 20260504033122 | 64 | 54 | 0.0 | 0.0 | 0.00 | 0.00 | 0.00 | 49 | 1006.8 |
| 20260504032622 | 64 | 54 | 0.0 | 0.0 | 0.00 | 0.00 | 0.00 | 48 | 1006.8 |
| 20260504032122 | 65 | 54 | 0.0 | 0.0 | 0.00 | 0.00 | 0.00 | 45 | 1006.8 |
| 20260504031622 | 65 | 54 | 0.0 | 0.0 | 0.00 | 0.00 | 0.00 | 44 | 1006.7 |
| 20260504031122 | 66 | 54 | 0.0 | 0.0 | 0.00 | 0.00 | 0.00 | 47 | 1006.7 |
| 20260504030622 | 67 | 54 | 0.0 | 0.0 | 0.00 | 0.00 | 0.00 | 47 | 1006.6 |
| 20260504030122 | 68 | 54 | 0.0 | 0.0 | 0.00 | 0.00 | 0.00 | 43 | 1006.6 |
| 20260504025622 | 69 | 54 | 0.0 | 0.0 | 0.00 | 0.00 | 0.00 | 43 | 1006.6 |
| 20260504025122 | 71 | 54 | 0.0 | 1.7 | 0.00 | 0.00 | 0.00 | 42 | 1006.6 |
| 20260504024622 | 71 | 54 | 0.0 | 0.9 | 0.00 | 0.00 | 0.00 | 41 | 1006.6 |
| 20260504024122 | 72 | 54 | 0.0 | 0.0 | 0.00 | 0.00 | 0.00 | 39 | 1006.5 |
| 20260504023622 | 73 | 54 | 0.0 | 0.0 | 0.00 | 0.00 | 0.00 | 37 | 1006.5 |
| 20260504023122 | 73 | 54 | 0.0 | 0.0 | 0.00 | 0.00 | 0.00 | 36 | 1006.6 |
| 20260504022622 | 74 | 54 | 0.0 | 0.0 | 0.00 | 0.00 | 0.00 | 36 | 1006.6 |
| 20260504022122 | 75 | 54 | 0.0 | 0.0 | 0.00 | 0.00 | 0.00 | 35 | 1006.7 |
| 20260504021622 | 75 | 54 | 0.0 | 0.0 | 0.00 | 0.00 | 0.00 | 35 | 1006.6 |
| 20260504021122 | 75 | 54 | 0.0 | 0.9 | 0.00 | 0.00 | 0.00 | 35 | 1006.7 |
| 20260504020622 | 75 | 54 | 0.0 | 0.9 | 0.00 | 0.00 | 0.00 | 35 | 1006.6 |
| 20260504020122 | 76 | 54 | 0.0 | 0.0 | 0.00 | 0.00 | 0.00 | 34 | 1006.6 |
| 20260504015622 | 76 | 54 | 0.0 | 0.0 | 0.00 | 0.00 | 0.00 | 35 | 1006.6 |
| 20260504015122 | 76 | 54 | 0.0 | 0.0 | 0.00 | 0.00 | 0.00 | 34 | 1006.7 |
| 20260504014622 | 77 | 54 | 0.0 | 0.0 | 0.00 | 0.00 | 0.00 | 35 | 1006.7 |
| 20260504014122 | 77 | 54 | 0.0 | 0.0 | 0.00 | 0.00 | 0.00 | 35 | 1006.7 |
| 20260504013622 | 77 | 54 | 0.0 | 0.9 | 0.00 | 0.00 | 0.00 | 36 | 1006.7 |
| 20260504013122 | 77 | 54 | 0.0 | 0.9 | 0.00 | 0.00 | 0.00 | 41 | 1006.7 |
| 20260504012622 | 77 | 54 | 0.0 | 0.0 | 0.00 | 0.00 | 0.00 | 35 | 1006.8 |
| 20260504012122 | 77 | 54 | 0.0 | 0.9 | 0.00 | 0.00 | 0.00 | 34 | 1006.8 |
| 20260504011622 | 78 | 54 | 0.0 | 1.7 | 0.00 | 0.00 | 0.00 | 33 | 1006.8 |
| 20260504011122 | 78 | 54 | 0.9 | 3.5 | 0.00 | 0.00 | 0.00 | 34 | 1006.8 |
| 20260504010622 | 78 | 54 | 0.9 | 2.6 | 0.00 | 0.00 | 0.00 | 35 | 1006.9 |
| 20260504010122 | 78 | 54 | 0.9 | 2.6 | 0.00 | 0.00 | 0.00 | 36 | 1006.9 |
| 20260504005622 | 78 | 54 | 0.9 | 3.5 | 0.00 | 0.00 | 0.00 | 36 | 1006.9 |
| 20260504005122 | 78 | 54 | 1.7 | 2.6 | 0.00 | 0.00 | 0.00 | 35 | 1007.1 |
| 20260504004622 | 78 | 54 | 1.7 | 3.5 | 0.00 | 0.00 | 0.00 | 33 | 1007.1 |
| 20260504004122 | 78 | 52 | 2.6 | 7.0 | 0.00 | 0.00 | 0.00 | 33 | 1007.1 |
| 20260504003622 | 78 | 50 | 0.9 | 3.5 | 0.00 | 0.00 | 0.00 | 37 | 1007.2 |
| 20260504003122 | 78 | 50 | 1.7 | 3.5 | 0.00 | 0.00 | 0.00 | 34 | 1007.2 |
| 20260504002622 | 78 | 50 | 1.7 | 2.6 | 0.00 | 0.00 | 0.00 | 36 | 1007.3 |
| 20260504002122 | 79 | 50 | 1.7 | 4.3 | 0.00 | 0.00 | 0.00 | 37 | 1007.3 |
| 20260504001622 | 79 | 50 | 0.9 | 2.6 | 0.00 | 0.00 | 0.00 | 33 | 1007.4 |
| 20260504001122 | 79 | 50 | 1.7 | 7.0 | 0.00 | 0.00 | 0.00 | 37 | 1007.5 |
| 20260504000622 | 79 | 26 | 1.7 | 7.0 | 0.00 | 0.00 | 0.00 | 33 | 1007.4 |
| 20260504000122 | 79 | 10 | 1.7 | 3.5 | 0.00 | 0.00 | 0.00 | 34 | 1007.5 |
| 20260503235622 | 79 | 10 | 1.7 | 3.5 | 0.00 | 0.00 | 0.00 | 35 | 1007.4 |
| 20260503235122 | 80 | 3 | 1.7 | 4.3 | 0.00 | 0.00 | 0.00 | 32 | 1007.4 |
| 20260503234622 | 80 | 355 | 0.0 | 2.6 | 0.00 | 0.00 | 0.00 | 34 | 1007.5 |
| 20260503234122 | 79 | 34 | 0.9 | 2.6 | 0.00 | 0.00 | 0.00 | 34 | 1007.5 |
| 20260503233622 | 79 | 42 | 0.9 | 3.5 | 0.00 | 0.00 | 0.00 | 33 | 1007.6 |
| 20260503233123 | 79 | 37 | 1.7 | 5.2 | 0.00 | 0.00 | 0.00 | 34 | 1007.6 |
| 20260503232622 | 79 | 26 | 0.9 | 3.5 | 0.00 | 0.00 | 0.00 | 34 | 1007.7 |
| 20260503232122 | 79 | 29 | 1.7 | 2.6 | 0.00 | 0.00 | 0.00 | 37 | 1007.7 |
| 20260503231622 | 79 | 42 | 2.6 | 6.1 | 0.00 | 0.00 | 0.00 | 35 | 1007.7 |
| 20260503231122 | 80 | 56 | 2.6 | 7.0 | 0.00 | 0.00 | 0.00 | 32 | 1007.7 |
| 20260503230622 | 80 | 37 | 1.7 | 5.2 | 0.00 | 0.00 | 0.00 | 33 | 1007.8 |
| 20260503230122 | 80 | 343 | 1.7 | 6.1 | 0.00 | 0.00 | 0.00 | 32 | 1007.9 |
| 20260503225622 | 80 | 263 | 0.9 | 6.1 | 0.00 | 0.00 | 0.00 | 34 | 1007.9 |
| 20260503225123 | 80 | 281 | 0.9 | 3.5 | 0.00 | 0.00 | 0.00 | 35 | 1008.0 |
| 20260503224622 | 80 | 334 | 0.9 | 3.5 | 0.00 | 0.00 | 0.00 | 34 | 1008.1 |
| 20260503224122 | 80 | 339 | 0.9 | 2.6 | 0.00 | 0.00 | 0.00 | 35 | 1008.2 |
| 20260503223622 | 79 | 339 | 0.9 | 2.6 | 0.00 | 0.00 | 0.00 | 36 | 1008.2 |
| 20260503223122 | 79 | 322 | 0.9 | 3.5 | 0.00 | 0.00 | 0.00 | 38 | 1008.4 |
| 20260503222622 | 79 | 279 | 0.9 | 3.5 | 0.00 | 0.00 | 0.00 | 31 | 1008.5 |